Regional Weather Roundup
Issued by NWS

Home | Current Version | Previous Version | Text Only | Print | Product List | Glossary Off
Versions: 1 2 3 4 5 6 7 8 9 10 11 12 13 14 15 16 17 18 19 20 21 22 23 24 25 26 27 28 29 30 31 32 33 34 35 36 37 38 39 40 41 42 43 44 45 46 47 48 49 50

000
ASUS43 KIND 211659
RWRIN

WEATHER ROUNDUP FOR INDIANA
NATIONAL WEATHER SERVICE INDIANAPOLIS IN
1200 PM EST WED FEB 21 2018

NOTE: "FAIR" INDICATES FEW OR NO CLOUDS BELOW 12,000 FEET WITH NO
SIGNIFICANT WEATHER AND/OR OBSTRUCTIONS TO VISIBILITY.

* - STATION DOES NOT REPORT WEATHER SUCH AS PRECIPITATION OR FOG.

+ - STATION NOT QUALITY CONTROLLED BY THE NATIONAL WEATHER SERVICE.
    USE DATA WITH CAUTION...ESPECIALLY DEWPOINT AND RELATIVE
    HUMIDITY OBSERVATIONS.

INZ001>003-010>013-019-020-211800-
NORTHWEST INDIANA

CITY           SKY/WX    TMP DP  RH WIND       PRES   REMARKS
GARY /AIRPORT/ CLOUDY    32  23  69 N12G23    30.54S WCI  23
MICHIGAN CITY+ CLOUDY    30  28  93 N12       30.55R WCI  21
MONTICELLO +   CLOUDY    32  31  96 N10       30.51R WCI  24
RENSSELAER +   CLOUDY    32  27  80 N14       30.54R WCI  22

$$

LMZ046-743>745-211800-
SOUTHERN LAKE MICHIGAN

STATION/POSITION TIME  TEMP    WIND        PRES    WAVE
                       AIR SEA DIR/SP/G            HT
                 (UTC) (F)     (DEG/KT/KT) (MB)    (FT)
BURNS HARBOR     1640   29     350/ 13/ 18 1034.9R
MICHIGAN CITY    1630   29     350/ 19/ 20   N/A

$$

INZ004-005-014>016-021>024-211800-
NORTH CENTRAL INDIANA

CITY           SKY/WX    TMP DP  RH WIND       PRES   REMARKS
ELKHART        CLOUDY    32  28  86 N10       30.51R WCI  24
GOSHEN         CLOUDY    33  29  85 NW9G18    30.50R WCI  25
PERU/GRISSOM   CLOUDY    35  35 100 N10       30.48R WCI  27
SOUTH BEND     CLOUDY    30  27  88 N16       30.52R WCI  19
WARSAW +       CLOUDY    32  30  93 N10       30.49R WCI  24

$$

INZ006>009-017-018-025>027-211800-
NORTHEAST INDIANA

CITY           SKY/WX    TMP DP  RH WIND       PRES   REMARKS
AUBURN +       CLOUDY    34  32  93 NW7       30.48R WCI  28
FORT WAYNE     CLOUDY    37  33  85 N10       30.46R WCI  30
KENDALLVILLE + CLOUDY    33  31  93 N10       30.47R WCI  25

$$

INZ028-029-035-036-043>045-051>053-211800-
WEST CENTRAL INDIANA

CITY           SKY/WX    TMP DP  RH WIND       PRES   REMARKS
CRAWFORDSVL +  CLOUDY    33  33 100 N9        30.42R WCI  25
GREENCASTLE +  LGT RAIN  36  34  93 N9        30.48R WCI  29
LAFAYETTE      CLOUDY    34  30  85 N8        30.50R WCI  27
TERRE HAUTE    LGT RAIN  38  36  92 N9        30.48R WCI  31

$$

INZ030>032-037>040-046>048-054>057-064-065-211800-
CENTRAL INDIANA

CITY           SKY/WX    TMP DP  RH WIND       PRES   REMARKS
ANDERSON       CLOUDY    37  36  93 N12       30.46R WCI  30
GREENWOOD *+   CLOUDY    36 -49   2 N7        30.46R WCI  31
INDIANAPOLIS   LGT RAIN  38  36  92 N8        30.46R WCI  32
-EAGLE CREEK   LGT RAIN  39  35  86 N9        30.46R WCI  33
KOKOMO +       CLOUDY    35  32  88 N14       30.50R WCI  26
MT COMFORT *+  CLOUDY    36  36 100 N10       30.46R WCI  28
SHELBYVILLE    LGT RAIN  40  36  86 N10       30.45R WCI  33

$$

INZ033-034-041-042-049-050-058-059-211800-
EAST CENTRAL INDIANA

CITY           SKY/WX    TMP DP  RH WIND       PRES   REMARKS
MUNCIE         LGT RAIN  39  34  82 N10       30.46R WCI  32
RICHMOND +     DRIZZLE   39  39 100 N10       30.42R WCI  32

$$

INZ060-061-067>069-081>083-085>088-211800-
SOUTHWEST INDIANA

CITY           SKY/WX    TMP DP  RH WIND       PRES   REMARKS
EVANSVILLE     LGT RAIN  39  38  96 N10       30.47R WCI  32
HUNTINGBURG +  LGT RAIN  41  38  89 N9        30.45R

$$

INZ062-063-066-070>080-084-089>092-211800-
SOUTH CENTRAL AND SOUTHEAST INDIANA

CITY           SKY/WX    TMP DP  RH WIND       PRES   REMARKS
BLOOMINGTON    LGT RAIN  40  38  93 N8        30.44R WCI  34
FRENCH LICK *+ CLOUDY    41 N/A N/A N8        30.43R
SEYMOUR +      DRIZZLE   45  41  87 N15       30.44R

$$




USA.gov is the U.S. government's official web portal to all federal, state and local government web resources and services.